sat.trackr.live / text

‹ back to catalog

LEMUR-2-NEUROSPICY

NORAD 63355 · 2025-061E

PAYLOAD ACTIVE UNKNOWN

§ Identity

Operator
Country
US
Launch date
2025-03-26
Launch site
RLLB
Launch vehicle
Mass (kg)
RCS (m²)

Purposes: earth_obs

External: N2YO · Heavens-Above · Gunter

§ Orbital elements

Epoch: 2026-09-19T22:09:43.475904Z

Period
95.06 min
Inclination
97.5739°
Eccentricity
0.0015003
Mean motion
15.14796979 rev/d
Perigee alt
511.2 km
Apogee alt
531.9 km
Semi-major
6,899.7 km
B*
1.3588e-4
RAAN
238.1053°
Arg perigee
295.4607°
Mean anomaly
64.5072°
Rev number
8,195

§ Raw data

LEMUR-2-NEUROSPICY1 63355U 25061E   26262.92341986  .00002461  00000+0  13588-3 0  99962 63355  97.5739 238.1053 0015003 295.4607  64.5072 15.14796979 81953

JSON: /api/v1/satellites/63355 · /tle

For live sub-satellite position, see the globe view (requires WebGL).

§ Visibility from observer

Set your observer location to see the next 7 days of passes ≥ 10°. The values pass through the URL so the page stays shareable.

No JS? Fill the form by hand. The geolocation button needs JavaScript.